Location: *
(24.1434°N, 56.8729°E)
Time: 22:17:12
(UTC+00:00)

Nadezhda 1 Rocket - Pass Details

Date: 09 April 2020
Orbit: 940 x 1006 km, 83.0° (Epoch: 22 May)

Event Time Altitude Azimuth Distance (km) Brightness Sun altitude
Rises 15:40:18 0° 184° (S) 3,717 6.9 -16.0°
Reaches altitude 10° 15:42:49 10° 184° (S) 2,771 6.2 -16.6°
Maximum altitude 15:49:13 89° 266° (W) 1,008 4.0 -18.0°
Drops below altitude 10° 15:55:37 10° 4° (N) 2,768 6.5 -19.4°
Sets 15:58:08 0° 5° (N) 3,713 7.2 -19.9°
